This demonstration page uses our WeatherBlox Daily Observations layout. Learn more.

36.17497, -115.13722

Hourly Observations for January 31, 2018

Temp ( °F °C ) Dew Point ( °F °C ) Humidity (%) Winds ( mph kmh ) Pressure ( in mb ) Visibility ( mi km ) Precip ( " mm )
12:53 am 00:53 Clear 49 9.4 28 -2.2 44 44 NNW 6 9 30.07 1018 10 16.0934 0 0
1:53 am 01:53 Clear 49 9.4 26 -3.3 41 41 NW 5 7 30.07 1018 10 16.0934 0 0
2:53 am 02:53 Clear 48 8.9 25 -3.9 41 41 WNW 5 7 30.07 1018 10 16.0934 0 0
3:53 am 03:53 Clear 47 8.3 25 -3.9 42 42 NNW 6 9 30.07 1018 10 16.0934 0 0
4:53 am 04:53 Clear 47 8.3 24 -4.4 41 41 WNW 3 6 30.07 1018 10 16.0934 0 0
5:53 am 05:53 Clear 45 7.2 25 -3.9 46 46 NNW 5 7 30.09 1019 10 16.0934 0 0
6:53 am 06:53 Sunny 45 7.2 27 -2.8 49 49 WNW 3 6 30.11 1020 10 16.0934 0 0
7:53 am 07:53 Sunny 49 9.4 24 -4.4 38 38 Calm 30.12 1020 10 16.0934 0 0
8:53 am 08:53 Sunny 53 11.7 26 -3.3 35 35 Calm 30.12 1020 10 16.0934 0 0
9:53 am 09:53 Sunny 57 13.9 25 -3.9 29 29 Calm 30.13 1020 10 16.0934 0 0
10:53 am 10:53 Sunny 62 16.7 22 -5.6 21 21 Calm 30.1 1019 10 16.0934 0 0
11:53 am 11:53 Sunny 64 17.8 23 -5 21 21 SE 6 9 30.07 1018 10 16.0934 0 0
12:53 pm 12:53 Sunny 66 18.9 23 -5 19 19 SSE 3 6 30.04 1017 10 16.0934 0 0
1:53 pm 13:53 Sunny 68 20 22 -5.6 17 17 Calm 30.02 1017 10 16.0934 0 0
2:53 pm 14:53 Sunny 69 20.6 22 -5.6 17 17 Calm 30.01 1016 10 16.0934 0 0
3:53 pm 15:53 Sunny 69 20.6 23 -5 17 17 ESE 5 7 30 1016 10 16.0934 0 0
4:53 pm 16:53 Sunny 67 19.4 24 -4.4 20 20 ESE 5 7 30 1016 10 16.0934 0 0
5:53 pm 17:53 Clear 64 17.8 25 -3.9 23 23 Calm 30.01 1016 10 16.0934 0 0
6:53 pm 18:53 Clear 59 15 26 -3.3 28 28 WNW 3 6 30.03 1017 10 16.0934 0 0
7:53 pm 19:53 Clear 56 13.3 30 -1.1 37 37 NW 6 9 30.04 1017 10 16.0934 0 0
8:53 pm 20:53 Clear 55 12.8 30 -1.1 38 38 NNW 6 9 30.06 1018 10 16.0934 0 0
9:53 pm 21:53 Clear 53 11.7 30 -1.1 41 41 WNW 7 11 30.07 1018 10 16.0934 0 0
10:53 pm 22:53 Clear 53 11.7 30 -1.1 41 41 Calm 30.07 1018 10 16.0934 0 0
11:53 pm 23:53 Clear 50 10 30 -1.1 46 46 WNW 3 6 30.09 1019 10 16.0934 0 0

Powered by AerisWeather